Flag for American Samoa Weather past 2 weeks in Pago Pago, American Samoa

Now
81 °F

Partly cloudy.


Feels Like: 88 °F
Forecast: 78 / 86 °F
Wind: 9 mph from East

Location: Pago Pago / Int. Airp.

Current Time: Apr 19, 2015 at 5:16:06 AM

Latest Report: Apr 19, 2015 at 4:51 AM


Visibility: 10 mi

Pressure: 29.82 "Hg

Humidity: 89%

Dew point: 77 °F

Location of Pago PagoLocation

Historic Weather in Pago Pago — Graph

°F

Pago Pago temperature yesterday

Maximum temperature yesterday: 83 °F (at 7:52 AM)
Minimum temperature yesterday: 76 °F (at 11:51 AM)
Average temperature yesterday: 81 °F

Past Weeks' High & Low Weather Summary

 TemperatureHumidityPressure
High90 °F (Apr 12, 12:53 PM)96% (Apr 5, 12:50 AM)29.98 "Hg (Apr 5, 12:50 AM)
Low76 °F (Apr 5, 2:50 AM)60% (Apr 9, 9:50 AM)29.72 "Hg (Apr 6, 3:51 PM)
Average83 °F80%29.85 "Hg
* Reported Apr 4 3:50 AM — Apr 19 3:52 AM, Pago Pago, Weather by CustomWeather, © 2015

Note: Actual official high and low records may vary slightly from our data, if they occured in-between our weather recording intervals... More about our weather records

Advertising

Pago Pago weather history for previous 24 hours

 ConditionsComfort  
Time TempWeatherWind HumidityBarometerVisibility
3:52 AM
Sun, Apr 19
81 °FOvercast.10 mph88%29.82 "Hg10 mi
2:54 AM79 °FPartly cloudy.3 mph89%29.82 "Hg10 mi
1:57 AM79 °FPartly cloudy.3 mph90%29.83 "Hg10 mi
12:50 AM80 °FPartly cloudy.9 mph88%29.86 "Hg10 mi
11:51 PM
Sat, Apr 18
80 °FPartly cloudy.9 mph86%29.88 "Hg10 mi
10:56 PM81 °FPartly cloudy.9 mph89%29.88 "Hg10 mi
9:50 PM80 °FPartly cloudy.13 mph88%29.90 "Hg10 mi
8:52 PM80 °FMostly cloudy.9 mph87%29.88 "Hg10 mi
7:57 PM82 °FMostly cloudy.14 mph87%29.86 "Hg10 mi
6:50 PM80 °FMostly cloudy.2 mph90%29.83 "Hg10 mi
5:55 PM82 °FMore clouds than sun.2 mph82%29.83 "Hg12 mi
4:50 PM82 °FMore clouds than sun.3 mph84%29.81 "Hg12 mi
3:58 PM82 °FMore clouds than sun.No wind85%29.80 "Hg12 mi
2:55 PM82 °FMore clouds than sun.5 mph84%29.79 "Hg12 mi
12:50 PM78 °FCloudy.6 mph94%29.83 "Hg11 mi
11:51 AM76 °FLots of rain. Mostly cloudy.7 mph96%29.87 "Hg1 mi
10:53 AM77 °FThunderstorms. Mostly cloudy.16 mph93%29.88 "Hg7 mi
9:59 AM83 °FCloudy.12 mph86%29.88 "Hg10 mi
7:52 AM83 °FBroken clouds.No wind83%29.86 "Hg12 mi
6:52 AM82 °FBroken clouds.3 mph87%29.83 "Hg12 mi
5:53 AM82 °FPartly cloudy.3 mph88%29.82 "Hg10 mi
Weather by CustomWeather, © 2015

See weather overviewHow to use our weather pages